McComb, MS

1:43 PM CDT on June 23, 2017 (GMT -0500)
McComb-Pike County-Lewis

Weather History for KMCB - January, 2015

Change the Weather History Date:

Saturday, January 10, 2015

  Actual Average Record
Temperature  
Mean Temperature 38 °F -  
Max Temperature 48 °F 56 °F 79 °F (1974)
Min Temperature 28 °F 34 °F 7 °F (1962)
Degree Days  
Heating Degree Days 27    
Moisture  
Dew Point 17 °F    
Average Humidity 45    
Maximum Humidity 61    
Minimum Humidity 26    
Precipitation  
Precipitation 0.00 in - - ()
Sea Level Pressure  
Sea Level Pressure 30.46 in    
Wind  
Wind Speed 5 mph (NE)    
Max Wind Speed 8 mph    
Max Gust Speed -    
Visibility 10 miles    
Events      
Averages and records for this station are not official NWS values.
T = Trace of Precipitation, MM = Missing Value Source: NWS Daily Summary

Daily Weather History Graph

Daily Weather History Graph

Search for Another Location

Airport or City:

Trip Planner

Search our weather history database for the weather conditions in past years. The results will help you decide how hot, cold, wet, or windy it might be!

Date:

Astronomy

Jan. 10, 2015 Rise Set
Actual Time 7:01 AM CST 5:17 PM CST
Civil Twilight 6:35 AM CST 5:43 PM CST
Nautical Twilight 6:05 AM CST 6:13 PM CST
Astronomical Twilight 5:35 AM CST 6:43 PM CST
Moon 10:24 PM CST (1/10) 10:07 AM CST (1/10)
Length of Visible Light 11h 08m
Length of Day
10h 16m
Waning Gibbous, 74% of the Moon is Illuminated
Jan 10
Waning Gibbous
Jan 13
Last Quarter
Jan 20
New
Jan 26
First Quarter
Feb 3
Full

Hourly Weather History & Observations

Time (CST) Temp. Windchill Dew Point Humidity Pressure Visibility Wind Dir Wind Speed Gust Speed Precip Events Conditions
12:53 AM 32.0 °F 26.4 °F 19.9 °F 61% 30.49 in 10.0 mi North 5.8 mph - N/A   Clear
1:53 AM 30.9 °F 26.2 °F 19.0 °F 61% 30.50 in 10.0 mi North 4.6 mph - N/A   Clear
2:53 AM 30.9 °F 24.3 °F 17.1 °F 57% 30.49 in 10.0 mi North 6.9 mph - N/A   Clear
3:53 AM 30.0 °F 22.4 °F 16.0 °F 56% 30.49 in 10.0 mi NNE 8.1 mph - N/A   Clear
4:53 AM 28.9 °F 22.8 °F 16.0 °F 58% 30.50 in 10.0 mi NNE 5.8 mph - N/A   Clear
5:53 AM 28.0 °F 24.2 °F 15.1 °F 58% 30.50 in 10.0 mi North 3.5 mph - N/A   Clear
6:53 AM 28.0 °F 20.8 °F 15.1 °F 58% 30.49 in 10.0 mi NE 6.9 mph - N/A   Clear
7:53 AM 28.9 °F 22.8 °F 16.0 °F 58% 30.50 in 10.0 mi NE 5.8 mph - N/A   Clear
8:53 AM 30.9 °F 24.3 °F 14.0 °F 50% 30.53 in 10.0 mi Variable 6.9 mph - N/A   Clear
9:53 AM 35.1 °F 30.1 °F 14.0 °F 42% 30.54 in 10.0 mi NNE 5.8 mph - N/A   Clear
10:53 AM 39.0 °F 35.7 °F 14.0 °F 36% 30.51 in 10.0 mi East 4.6 mph - N/A   Clear
11:53 AM 41.0 °F - 15.1 °F 35% 30.48 in 10.0 mi Calm Calm - N/A   Clear
12:53 PM 46.0 °F 43.9 °F 14.0 °F 28% 30.43 in 10.0 mi Variable 4.6 mph - N/A   Clear
1:53 PM 46.9 °F - 15.1 °F 28% 30.41 in 10.0 mi Variable 4.6 mph - N/A   Clear
2:53 PM 48.0 °F - 15.1 °F 27% 30.40 in 10.0 mi NE 5.8 mph - N/A   Clear
3:53 PM 48.9 °F - 15.1 °F 26% 30.40 in 10.0 mi Calm Calm - N/A   Clear
4:53 PM 48.0 °F - 16.0 °F 28% 30.41 in 10.0 mi NNE 3.5 mph - N/A   Clear
5:53 PM 44.1 °F 42.5 °F 17.1 °F 34% 30.41 in 10.0 mi NE 3.5 mph - N/A   Clear
6:53 PM 42.1 °F 40.2 °F 19.0 °F 40% 30.43 in 10.0 mi NNE 3.5 mph - N/A   Clear
7:53 PM 41.0 °F 38.0 °F 19.0 °F 41% 30.44 in 10.0 mi ENE 4.6 mph - N/A   Clear
8:53 PM 36.0 °F 33.3 °F 23.0 °F 59% 30.45 in 10.0 mi ENE 3.5 mph - N/A   Clear
9:53 PM 39.0 °F 36.8 °F 18.0 °F 43% 30.43 in 10.0 mi ENE 3.5 mph - N/A   Clear
10:53 PM 39.0 °F 36.8 °F 19.0 °F 45% 30.41 in 10.0 mi East 3.5 mph - N/A   Clear
11:53 PM 39.0 °F 35.7 °F 19.0 °F 45% 30.39 in 10.0 mi ESE 4.6 mph - N/A   Clear